User: anonymous   Login
Location: Arrakis Observatory
(44.1122°N, 95.7153°W)
Time: 02:45:21
(UTC-05:00)
Language:

Iridium 35 - Orbit

View from above orbital plane
View from above orbital plane
View from above satellite
View from above satellite

Ground track
Ground track

The orbit data is extracted from the following two-line orbital elements,

1 24966U 97056B   16151.45480810  .00000099  00000-0  28464-4 0  9994
2 24966  86.3954 118.7141 0002272  85.8460 274.2996 14.34215625977679
Epoch (UTC): 30 May 2016 10:54:55
Eccentricity: 0.0002272
inclination: 86.3954°
perigee height: 776 km
apogee height: 779 km
right ascension of ascending node: 118.7141°
argument of perigee: 85.8460°
revolutions per day: 14.34215625
mean anomaly at epoch: 274.2996°
orbit number at epoch: 97767

The dashed part of the orbit path shows where the satellite is in the earth's shadow,  

DLR